KC1HBM Weather Reports


Display with metric or nautical units.
time (UTC)temp
F
wind
direction
speed
MPH
gust
MPH
rain 1hr
in
rain 24hr
in
rain mn
in
humidity
%
barometer
mb
20260904061958 64 313 0.0 0.0 0.00 0.00 0.00 99 1008.1
20260904061454 64 313 0.0 0.0 0.00 0.00 0.00 99 1008.3
20260904060949 64 313 0.0 0.0 0.00 0.00 0.00 99 1008.1
20260904060445 64 310 0.0 0.0 0.00 0.00 0.00 99 1008.1
20260904055941 64 311 0.0 0.0 0.00 0.00 0.00 99 1008.2
20260904055437 64 312 0.0 0.0 0.00 0.00 0.00 99 1008.3
20260904054932 64 312 0.0 0.0 0.00 0.00 0.00 99 1008.3
20260904054427 64 312 0.0 0.0 0.00 0.00 0.00 99 1008.4
20260904053923 64 312 0.0 0.0 0.00 0.00 0.00 99 1008.5
20260904053422 64 312 0.0 0.0 0.00 0.00 0.00 99 1008.5
20260904052918 64 312 0.0 0.0 0.00 0.00 0.00 99 1008.4
20260904052415 64 311 0.0 0.0 0.00 0.00 0.00 99 1008.5
20260904051910 64 311 0.0 0.0 0.00 0.00 0.00 99 1008.7
20260904051406 64 311 0.0 0.0 0.00 0.00 0.00 99 1008.7
20260904050900 64 312 0.0 0.0 0.00 0.00 0.00 99 1008.6
20260904050357 64 310 0.0 0.0 0.00 0.00 0.00 99 1008.8
20260904045856 64 309 0.0 0.0 0.00 0.00 0.00 99 1008.7
20260904045352 64 308 0.0 0.0 0.00 0.00 0.00 99 1008.6
20260904044851 64 310 0.0 0.0 0.00 0.00 0.00 99 1008.7
20260904044348 64 310 0.0 0.0 0.00 0.00 0.00 99 1008.7
20260904043844 64 310 0.0 0.0 0.00 0.00 0.00 99 1008.6
20260904043341 64 309 0.0 0.0 0.00 0.00 0.00 99 1008.9
20260904042835 64 311 0.0 0.0 0.00 0.00 0.00 99 1008.7
20260904042332 64 314 0.0 0.0 0.00 0.00 0.00 99 1008.9
20260904041826 64 310 0.0 1.0 0.00 0.00 0.00 99 1008.9
20260904041322 64 310 0.0 0.0 0.00 0.00 0.00 99 1008.9
20260904040818 64 309 0.0 0.0 0.00 0.00 0.00 99 1008.8
20260904040313 64 310 0.0 0.0 0.00 0.00 0.00 99 1008.9
20260904035809 64 313 0.0 1.0 0.00 0.15 0.15 99 1009.1
20260904035306 64 309 0.0 0.0 0.00 0.15 0.15 99 1009.1
20260904034803 64 308 0.0 0.0 0.00 0.15 0.15 99 1009.1
20260904034300 64 310 0.0 0.0 0.00 0.15 0.15 99 1009.2
20260904033755 64 310 0.0 0.0 0.00 0.15 0.15 99 1009.2
20260904033252 64 310 0.0 0.0 0.00 0.15 0.15 99 1008.9
20260904032748 64 309 0.0 0.0 0.00 0.15 0.15 99 1008.9
20260904032246 65 311 0.0 0.0 0.00 0.15 0.15 99 1009.0
20260904031741 65 310 0.0 0.0 0.00 0.15 0.15 99 1009.1
20260904031236 65 314 0.0 0.0 0.00 0.15 0.15 99 1008.8
20260904030726 65 313 0.0 0.0 0.00 0.15 0.15 99 1009.1
20260904030221 65 302 2.0 2.0 0.00 0.15 0.15 99 1009.2
20260904025719 65 311 0.0 0.0 0.00 0.15 0.15 99 1009.3
20260904025212 65 311 0.0 0.0 0.00 0.15 0.15 99 1009.6
20260904024708 65 311 0.0 0.0 0.00 0.15 0.15 99 1009.7
20260904024203 65 311 0.0 0.0 0.00 0.15 0.15 99 1009.7
20260904023654 65 311 0.0 0.0 0.00 0.15 0.15 99 1009.8
20260904023150 65 311 0.0 0.0 0.00 0.15 0.15 99 1009.6
20260904022649 65 311 0.0 0.0 0.00 0.15 0.15 99 1009.6
20260904022146 65 311 0.0 0.0 0.00 0.15 0.15 99 1009.8
20260904021642 65 311 0.0 0.0 0.00 0.15 0.15 99 1009.8
20260904021136 65 313 0.0 0.0 0.00 0.15 0.15 99 1009.6
20260904020633 65 311 0.0 0.0 0.00 0.15 0.15 99 1009.9
20260904020127 65 311 0.0 0.0 0.00 0.15 0.15 99 1009.8
20260904015621 65 312 0.0 0.0 0.00 0.15 0.15 99 1009.6
20260904015120 65 312 0.0 0.0 0.00 0.15 0.15 99 1010.1
20260904014619 65 315 0.0 0.0 0.00 0.15 0.15 99 1009.9
20260904014114 65 310 0.0 0.0 0.00 0.15 0.15 99 1010.1
20260904013611 65 312 0.0 0.0 0.00 0.15 0.15 99 1009.8
20260904013108 65 310 0.0 0.0 0.00 0.15 0.15 99 1010.1
20260904012608 65 314 0.0 0.0 0.00 0.15 0.15 99 1009.9
20260904012102 65 314 0.0 0.0 0.00 0.15 0.15 99 1010.1
20260904011601 65 312 0.0 0.0 0.00 0.15 0.15 99 1010.1
20260904011057 65 311 0.0 0.0 0.00 0.15 0.15 99 1010.1
20260904010553 65 311 0.0 0.0 0.00 0.15 0.15 99 1010.2
20260904010050 64 312 0.0 0.0 0.00 0.15 0.15 99 1010.0
20260904005549 64 310 0.0 0.0 0.00 0.15 0.15 99 1009.8
20260904005044 65 311 0.0 0.0 0.00 0.15 0.15 99 1009.7
20260904004539 64 310 0.0 0.0 0.00 0.15 0.15 99 1009.7
20260904004034 64 312 0.0 0.0 0.00 0.15 0.15 99 1009.9
20260904003531 65 311 0.0 0.0 0.00 0.15 0.15 99 1009.8
20260904003026 65 312 0.0 0.0 0.00 0.15 0.15 99 1009.7
20260904002522 64 310 0.0 0.0 0.00 0.15 0.15 99 1009.4
20260904002021 64 310 0.0 0.0 0.00 0.15 0.15 99 1009.7
20260904001517 65 310 0.0 0.0 0.00 0.15 0.15 99 1009.9
20260904001016 65 310 0.0 0.0 0.00 0.15 0.15 99 1009.7
20260904000515 65 310 0.0 0.0 0.00 0.15 0.15 99 1009.8
20260904000011 64 310 0.0 0.0 0.00 0.15 0.15 99 1009.4
20260903235506 65 311 0.0 0.0 0.00 0.15 0.15 99 1009.5
20260903235002 65 311 0.0 0.0 0.00 0.15 0.15 99 1009.5
20260903234457 65 310 0.0 0.0 0.00 0.15 0.15 99 1009.6
20260903233953 65 310 1.0 1.0 0.00 0.15 0.15 99 1009.4
20260903233449 65 311 0.0 0.0 0.00 0.15 0.15 99 1009.6
20260903232944 65 311 0.0 0.0 0.00 0.15 0.15 99 1009.6
20260903232439 65 312 0.0 0.0 0.00 0.15 0.15 99 1009.7
20260903231938 65 311 0.0 0.0 0.00 0.15 0.15 99 1009.7
20260903231434 65 311 0.0 0.0 0.00 0.15 0.15 99 1009.9
20260903230928 65 310 0.0 0.0 0.00 0.15 0.15 99 1009.8
20260903230424 66 311 0.0 0.0 0.00 0.15 0.15 98 1009.8
20260903225920 66 310 0.0 0.0 0.00 0.15 0.15 98 1009.8
20260903225416 66 311 0.0 0.0 0.00 0.15 0.15 98 1009.8
20260903224912 66 311 0.0 0.0 0.00 0.15 0.15 97 1009.8
20260903224408 66 311 0.0 0.0 0.00 0.15 0.15 97 1009.9
20260903223904 66 311 0.0 0.0 0.00 0.15 0.15 97 1009.9
20260903223402 66 311 0.0 0.0 0.00 0.15 0.15 96 1010.1
20260903222857 66 311 0.0 0.0 0.00 0.15 0.15 96 1009.8
20260903222357 66 312 0.0 0.0 0.00 0.15 0.15 96 1010.0
20260903221851 66 310 0.0 0.0 0.00 0.15 0.15 96 1009.7
20260903221350 66 311 0.0 0.0 0.00 0.15 0.15 95 1010.0
20260903220849 66 309 0.0 0.0 0.00 0.15 0.15 95 1010.1
20260903220343 66 312 0.0 0.0 0.00 0.15 0.15 95 1009.9
20260903215841 66 310 0.0 0.0 0.00 0.15 0.15 95 1009.9
20260903215338 66 311 0.0 1.0 0.00 0.15 0.15 95 1010.0
20260903214836 66 312 0.0 0.0 0.00 0.15 0.15 95 1009.9
20260903214332 66 311 0.0 0.0 0.00 0.15 0.15 95 1009.8
20260903213826 67 311 0.0 0.0 0.00 0.15 0.15 95 1010.0
20260903213321 66 310 0.0 1.0 0.00 0.15 0.15 95 1009.8
20260903212818 67 307 1.0 1.0 0.00 0.15 0.15 94 1010.1
20260903212314 67 312 0.0 1.0 0.00 0.15 0.15 94 1009.9
20260903211813 66 314 0.0 0.0 0.00 0.15 0.15 95 1010.1
20260903211309 66 312 0.0 0.0 0.00 0.15 0.15 95 1010.2
20260903210805 66 313 0.0 0.0 0.00 0.15 0.15 95 1009.9
20260903210300 66 309 0.0 0.0 0.00 0.15 0.15 96 1010.0
20260903205754 66 308 0.0 0.0 0.00 0.15 0.15 96 1009.8
20260903205253 66 310 0.0 1.0 0.00 0.15 0.15 97 1009.9
20260903204749 66 308 1.0 1.0 0.00 0.15 0.15 97 1009.8
20260903204244 66 308 0.0 1.0 0.00 0.15 0.15 96 1010.1
20260903203740 66 310 0.0 0.0 0.00 0.15 0.15 97 1010.2
20260903203236 66 310 0.0 0.0 0.00 0.15 0.15 98 1010.3
20260903202729 65 311 1.0 1.0 0.00 0.15 0.15 98 1010.2
20260903202226 65 307 0.0 1.0 0.00 0.15 0.15 99 1010.2
20260903201725 65 310 0.0 0.0 0.00 0.15 0.15 99 1010.3
20260903201221 65 311 0.0 0.0 0.00 0.15 0.15 99 1010.1
20260903200719 65 311 0.0 0.0 0.00 0.15 0.15 99 1010.2
20260903200215 65 311 0.0 0.0 0.00 0.15 0.15 99 1010.1
20260903195710 64 307 0.0 0.0 0.00 0.15 0.15 99 1010.2
20260903195206 65 312 0.0 0.0 0.00 0.15 0.15 99 1010.2
20260903194706 65 310 0.0 1.0 0.00 0.15 0.15 99 1010.3
20260903194201 65 311 0.0 0.0 0.00 0.15 0.15 99 1010.4
20260903193657 65 307 0.0 1.0 0.00 0.15 0.15 99 1010.4
20260903193152 65 307 1.0 1.0 0.00 0.15 0.15 99 1010.6
20260903192649 65 304 1.0 1.0 0.00 0.15 0.15 99 1010.5
20260903192149 65 306 0.0 0.0 0.00 0.15 0.15 99 1010.7
20260903191645 65 306 1.0 1.0 0.00 0.15 0.15 99 1010.7
20260903191145 65 309 1.0 1.0 0.00 0.15 0.15 99 1010.7
20260903190644 65 301 2.0 2.0 0.00 0.15 0.15 99 1010.8
20260903190139 64 308 0.0 0.0 0.00 0.15 0.15 99 1011.0
20260903185635 64 308 1.0 1.0 0.00 0.15 0.15 99 1011.0
20260903185130 64 315 1.0 1.0 0.00 0.15 0.15 99 1011.0
20260903184626 64 311 0.0 1.0 0.00 0.15 0.15 99 1011.1
20260903184122 65 309 1.0 1.0 0.00 0.15 0.15 99 1011.0
20260903183620 65 308 1.0 1.0 0.00 0.15 0.15 99 1011.0
20260903183116 65 299 1.0 1.0 0.00 0.15 0.15 99 1011.4
20260903182615 65 305 1.0 1.0 0.00 0.15 0.15 99 1011.4
20260903182111 65 308 1.0 1.0 0.00 0.15 0.15 99 1011.2
20260903181608 65 308 0.0 0.0 0.00 0.15 0.15 99 1011.1
20260903181103 65 294 2.0 2.0 0.00 0.15 0.15 99 1011.3
20260903180559 65 308 1.0 1.0 0.00 0.15 0.15 99 1011.5
20260903180053 65 304 2.0 2.0 0.00 0.15 0.15 99 1011.4
20260903175552 65 312 2.0 2.0 0.00 0.15 0.15 99 1011.5
20260903175052 65 303 2.0 2.0 0.00 0.15 0.15 99 1011.3
20260903174547 65 306 1.0 1.0 0.00 0.15 0.15 99 1011.2
20260903174041 65 306 1.0 2.0 0.00 0.15 0.15 99 1011.3
20260903173536 65 308 0.0 0.0 0.00 0.15 0.15 99 1011.3
20260903173033 65 305 2.0 3.0 0.00 0.15 0.15 99 1011.0
20260903172527 64 306 1.0 1.0 0.00 0.15 0.15 99 1011.3
20260903172023 64 311 1.0 1.0 0.00 0.15 0.15 99 1011.8
20260903171517 64 309 1.0 1.0 0.00 0.15 0.15 99 1011.4
20260903171013 64 308 1.0 1.0 0.00 0.15 0.15 99 1011.6
20260903170511 64 308 1.0 1.0 0.00 0.15 0.15 99 1011.5
20260903170007 64 302 2.0 2.0 0.00 0.15 0.15 99 1011.3
20260903165459 64 288 3.0 5.0 0.00 0.15 0.15 99 1011.4
20260903164955 64 290 2.0 2.0 0.00 0.15 0.15 99 1011.5
20260903164449 64 311 1.0 2.0 0.00 0.15 0.15 99 1011.5
20260903163948 64 312 1.0 1.0 0.00 0.15 0.15 99 1011.4
20260903163439 64 281 2.0 3.0 0.00 0.15 0.15 99 1011.7
20260903162936 64 295 3.0 3.0 0.00 0.15 0.15 99 1011.8
20260903162432 64 298 2.0 2.0 0.00 0.15 0.15 99 1012.0
20260903161927 64 306 1.0 1.0 0.00 0.15 0.15 99 1011.8
20260903161422 63 308 0.0 1.0 0.00 0.15 0.15 99 1012.2
20260903160918 64 309 1.0 2.0 0.00 0.15 0.15 99 1012.1
20260903160417 64 309 2.0 2.0 0.00 0.15 0.15 99 1012.2
20260903155916 64 311 0.0 1.0 0.00 0.15 0.15 99 1012.2
20260903155411 64 305 1.0 1.0 0.00 0.15 0.15 99 1012.1
20260903154907 63 312 0.0 0.0 0.00 0.15 0.15 99 1012.3
20260903154403 63 311 0.0 0.0 0.00 0.15 0.15 99 1012.4
20260903153903 63 293 3.0 3.0 0.00 0.15 0.15 99 1012.5
20260903153358 63 296 2.0 2.0 0.00 0.15 0.15 99 1012.3
20260903152855 63 308 1.0 1.0 0.00 0.15 0.15 99 1012.5
20260903152350 64 309 1.0 2.0 0.00 0.15 0.15 99 1012.4
20260903151846 64 309 1.0 1.0 0.00 0.15 0.15 99 1012.8
20260903151341 63 299 3.0 3.0 0.00 0.15 0.15 99 1012.8
20260903150841 63 315 1.0 2.0 0.00 0.15 0.15 99 1012.9
20260903150335 63 310 1.0 1.0 0.00 0.15 0.15 99 1012.8
20260903145830 63 304 1.0 1.0 0.00 0.15 0.15 99 1013.0
20260903145326 63 309 1.0 1.0 0.05 0.15 0.15 99 1013.0
20260903144825 63 291 2.0 2.0 0.05 0.15 0.15 99 1013.0
20260903144320 63 309 1.0 2.0 0.00 0.14 0.14 99 1013.0
20260903143815 63 309 1.0 1.0 0.00 0.14 0.14 99 1013.3
20260903143312 63 310 0.0 0.0 0.00 0.14 0.14 99 1013.4
20260903142808 63 307 1.0 1.0 0.00 0.14 0.14 99 1013.3
20260903142306 62 308 0.0 0.0 0.00 0.14 0.14 99 1013.3
20260903141759 63 302 1.0 1.0 0.00 0.14 0.14 99 1013.1
20260903141255 63 309 0.0 0.0 0.00 0.14 0.14 99 1013.3
20260903140749 63 310 1.0 1.0 0.00 0.14 0.14 99 1013.3
20260903140244 62 305 1.0 1.0 0.07 0.14 0.14 99 1013.2
20260903135740 62 296 2.0 2.0 0.07 0.14 0.14 99 1013.5
20260903135235 62 307 0.0 0.0 0.00 0.13 0.13 99 1013.3
20260903134734 62 311 0.0 0.0 0.00 0.13 0.13 99 1013.4
20260903134230 62 310 0.0 0.0 0.00 0.13 0.13 99 1013.5
20260903133727 62 308 0.0 0.0 0.00 0.13 0.13 99 1013.3
20260903133224 62 312 0.0 0.0 0.00 0.13 0.13 99 1013.2
20260903132724 62 308 0.0 0.0 0.00 0.13 0.13 99 1013.5
20260903132224 62 310 0.0 0.0 0.00 0.13 0.13 99 1013.3
20260903131719 62 308 0.0 0.0 0.00 0.13 0.13 99 1013.3
20260903131213 62 309 0.0 0.0 0.07 0.13 0.13 99 1013.6
20260903130708 62 315 0.0 0.0 0.07 0.13 0.13 99 1013.3
20260903130202 62 311 0.0 0.0 0.00 0.12 0.12 99 1013.6
20260903125701 61 308 0.0 0.0 0.00 0.12 0.12 99 1013.4
20260903125156 62 311 0.0 0.0 0.00 0.12 0.12 99 1013.6
20260903124655 62 309 0.0 0.0 0.05 0.12 0.12 99 1013.7
20260903124150 61 305 0.0 0.0 0.05 0.12 0.12 99 1014.0
20260903123649 61 313 0.0 0.0 0.07 0.11 0.11 99 1014.1
20260903123148 61 312 0.0 0.0 0.07 0.11 0.11 99 1014.1
20260903122648 61 312 0.0 0.0 0.00 0.10 0.10 99 1014.0
20260903122143 61 310 0.0 0.0 0.00 0.10 0.10 99 1014.3
20260903121641 61 311 0.0 0.0 0.00 0.10 0.10 99 1014.0
20260903121138 61 313 0.0 0.0 0.00 0.10 0.10 99 1014.1
20260903120636 61 312 0.0 0.0 0.00 0.10 0.10 99 1014.1
20260903120131 61 313 0.0 0.0 0.00 0.10 0.10 99 1014.2
20260903115629 61 309 0.0 0.0 0.00 0.10 0.10 99 1014.2
20260903115125 61 310 0.0 0.0 0.00 0.10 0.10 99 1014.0
20260903114620 61 309 0.0 1.0 0.00 0.10 0.10 99 1014.0
20260903114115 61 304 0.0 0.0 0.00 0.10 0.10 99 1013.9
20260903113610 61 310 0.0 0.0 0.00 0.10 0.10 99 1013.8
20260903113107 61 309 0.0 0.0 0.00 0.10 0.10 99 1013.9
20260903112603 61 308 0.0 1.0 0.00 0.10 0.10 99 1013.9
20260903112103 61 311 0.0 0.0 0.00 0.10 0.10 99 1014.1
20260903111602 61 312 0.0 0.0 0.00 0.10 0.10 99 1014.1
20260903111057 61 311 0.0 0.0 0.00 0.10 0.10 99 1014.1
20260903110553 61 311 0.0 0.0 0.00 0.10 0.10 99 1013.9
20260903110048 61 309 0.0 0.0 0.00 0.10 0.10 99 1014.0
20260903105542 61 302 2.0 2.0 0.00 0.10 0.10 99 1014.0
20260903105032 61 313 0.0 0.0 0.00 0.10 0.10 99 1014.1
20260903104532 61 311 0.0 0.0 0.00 0.10 0.10 99 1014.2
20260903104028 61 312 0.0 0.0 0.00 0.10 0.10 99 1014.2
20260903103523 61 312 0.0 0.0 0.00 0.10 0.10 99 1014.2
20260903103020 61 312 0.0 1.0 0.00 0.10 0.10 99 1014.3
20260903102515 62 313 0.0 0.0 0.00 0.10 0.10 99 1014.4
20260903102014 62 313 0.0 0.0 0.00 0.10 0.10 99 1014.5
20260903101508 62 311 0.0 0.0 0.00 0.10 0.10 99 1014.1
20260903101004 62 311 0.0 0.0 0.00 0.10 0.10 99 1014.2
20260903100458 62 311 0.0 0.0 0.05 0.10 0.10 99 1014.4
20260903095955 62 313 0.0 0.0 0.05 0.10 0.10 99 1014.5
20260903095450 62 314 0.0 0.0 0.07 0.09 0.09 99 1014.6
20260903094945 62 312 0.0 0.0 0.24 0.09 0.09 99 1014.5
20260903094444 62 310 0.0 0.0 0.35 0.08 0.08 99 1014.7
20260903093935 63 313 0.0 0.0 0.28 0.06 0.06 99 1014.6
20260903093430 63 305 0.0 0.0 0.05 0.02 0.02 99 1014.9
20260903092926 63 314 0.0 0.0 0.07 0.01 0.01 99 1014.9
20260903092426 63 312 0.0 0.0 0.07 0.01 0.01 99 1014.9
20260903091924 63 312 0.0 0.0 0.00 0.00 0.00 99 1015.0
20260903091423 63 312 0.0 0.0 0.00 0.00 0.00 99 1014.9
20260903090918 63 310 0.0 0.0 0.00 0.00 0.00 99 1014.9
20260903090414 63 311 0.0 0.0 0.00 0.00 0.00 99 1014.9
20260903085912 63 312 0.0 0.0 0.00 0.00 0.00 99 1014.4
20260903085411 63 311 0.0 0.0 0.00 0.00 0.00 99 1014.6
20260903084911 63 312 0.0 0.0 0.00 0.00 0.00 99 1014.3
20260903084409 63 313 0.0 0.0 0.00 0.00 0.00 99 1014.3
20260903083905 63 310 0.0 0.0 0.00 0.00 0.00 99 1014.3
20260903083401 63 309 0.0 0.0 0.00 0.00 0.00 99 1014.3
20260903082859 63 315 0.0 0.0 0.00 0.00 0.00 99 1014.6
20260903082354 62 310 0.0 0.0 0.00 0.00 0.00 99 1014.6
20260903081850 62 312 0.0 0.0 0.00 0.00 0.00 99 1014.5
20260903081345 62 312 0.0 0.0 0.00 0.00 0.00 99 1014.6
20260903080841 62 311 0.0 0.0 0.00 0.00 0.00 99 1014.4
20260903080338 62 312 0.0 0.0 0.00 0.00 0.00 99 1014.5
20260903075837 62 308 1.0 2.0 0.00 0.00 0.00 99 1014.4
20260903075333 62 311 0.0 0.0 0.00 0.00 0.00 99 1014.5
20260903074826 62 309 0.0 0.0 0.00 0.00 0.00 99 1014.5
20260903074321 62 309 0.0 0.0 0.00 0.00 0.00 99 1014.8
20260903073817 62 309 0.0 0.0 0.00 0.00 0.00 99 1014.5
20260903073312 62 310 0.0 0.0 0.00 0.00 0.00 99 1014.8
20260903072808 62 310 0.0 0.0 0.00 0.00 0.00 99 1015.0
20260903072306 62 311 0.0 0.0 0.00 0.00 0.00 99 1014.9
20260903071800 62 309 0.0 0.0 0.00 0.00 0.00 99 1015.0
20260903071256 62 310 0.0 0.0 0.00 0.00 0.00 99 1015.0
20260903070750 62 312 0.0 0.0 0.00 0.00 0.00 99 1015.2
20260903070246 62 310 0.0 0.0 0.00 0.00 0.00 99 1015.4
20260903065741 62 310 0.0 0.0 0.00 0.00 0.00 99 1015.6
20260903065240 62 310 0.0 0.0 0.00 0.00 0.00 99 1015.5
20260903064739 62 308 0.0 0.0 0.00 0.00 0.00 99 1015.8
20260903064235 62 309 0.0 0.0 0.00 0.00 0.00 99 1015.7
20260903063731 62 311 0.0 0.0 0.00 0.00 0.00 99 1016.1
20260903063226 61 307 0.0 0.0 0.00 0.00 0.00 99 1016.1
20260903062722 61 312 0.0 0.0 0.00 0.00 0.00 99 1016.2
20260903062221 61 310 0.0 0.0 0.00 0.00 0.00 99 1016.5